Weather History for Detroit, MI

Change the Weather History Date:

Tuesday, January 8, 2013

  Actual Average Record
Temperature  
Mean Temperature 31 °F -  
Max Temperature 36 °F 26 °F 62 °F (1965)
Min Temperature 26 °F 14 °F -5 °F (1970)
Degree Days  
Heating Degree Days 34    
Moisture  
Dew Point 25 °F    
Average Humidity 77    
Maximum Humidity 84    
Minimum Humidity 70    
Precipitation  
Precipitation 0.00 in - - ()
Sea Level Pressure  
Sea Level Pressure 30.23 in    
Wind  
Wind Speed 8 mph (SSW)    
Max Wind Speed 10 mph    
Max Gust Speed -    
Visibility 7 miles    
Events      
Averages and records for this station are not official NWS values.
T = Trace of Precipitation, MM = Missing Value Source: NWS Daily Summary

Daily Weather History Graph

Daily Weather History Graph

Search for Another Location

Airport:

Trip Planner

Search our weather history database for the weather conditions in past years. The results will help you decide how hot, cold, wet, or windy it might be!

Date:

Astronomy

Jan. 08, 2013 Rise Set
Actual Time 8:01 AM EST 5:17 PM EST
Civil Twilight 7:29 AM EST 5:48 PM EST
Nautical Twilight 6:54 AM EST 6:23 PM EST
Astronomical Twilight 6:20 AM EST 6:57 PM EST
Moon 4:32 AM EST (1/8) 2:18 PM EST (1/8)
Length of Visible Light 10h 19m
Length of Day
9h 16m
Waning Crescent, 14% of the Moon is Illuminated
Jan 8
Waning Crescent
Jan 11
New
Jan 18
First Quarter
Jan 26
Full
Feb 3
Last Quarter

Hourly Weather History & Observations

Time (EST) Temp. Windchill Dew Point Humidity Pressure Visibility Wind Dir Wind Speed Gust Speed Precip Events Conditions
12:53 AM 28.9 °F 20.4 °F 23.0 °F 78% 30.20 in 8.0 mi SW 9.2 mph - N/A   Clear
1:53 AM 28.9 °F 19.8 °F 23.0 °F 78% 30.19 in 8.0 mi SW 10.4 mph - N/A   Clear
2:53 AM 28.9 °F 21.1 °F 23.0 °F 78% 30.20 in 8.0 mi SW 8.1 mph - N/A   Clear
3:53 AM 28.0 °F 20.0 °F 23.0 °F 81% 30.20 in 8.0 mi SW 8.1 mph - N/A   Clear
4:53 AM 28.0 °F 20.0 °F 21.9 °F 78% 30.20 in 7.0 mi WSW 8.1 mph - N/A   Clear
5:53 AM 27.0 °F 18.7 °F 21.9 °F 81% 30.21 in 7.0 mi SW 8.1 mph - N/A   Clear
6:53 AM 26.1 °F 20.5 °F 21.0 °F 81% 30.22 in 7.0 mi SW 4.6 mph - N/A   Clear
7:53 AM 26.1 °F 18.4 °F 21.9 °F 84% 30.24 in 6.0 mi SSW 6.9 mph - N/A   Clear
8:53 AM 28.0 °F 19.3 °F 21.9 °F 78% 30.26 in 5.0 mi SW 9.2 mph - N/A   Haze
9:53 AM 28.9 °F 22.8 °F 23.0 °F 78% 30.27 in 5.0 mi SW 5.8 mph - N/A   Haze
10:53 AM 30.0 °F 23.2 °F 24.1 °F 79% 30.28 in 5.0 mi SW 6.9 mph - N/A   Haze
11:53 AM 30.9 °F 22.8 °F 25.0 °F 79% 30.27 in 5.0 mi SSW 9.2 mph - N/A   Haze
12:53 PM 33.1 °F 25.5 °F 25.0 °F 72% 30.25 in 6.0 mi South 9.2 mph - N/A   Haze
1:53 PM 35.6 °F 28.6 °F 26.6 °F 70% 30.22 in 7.0 mi SSW 9.2 mph - N/A   Clear
2:53 PM 36.0 °F 32.1 °F 27.0 °F 70% 30.25 in 8.0 mi South 4.6 mph - N/A   Clear
3:53 PM 35.1 °F 29.3 °F 27.0 °F 72% 30.25 in 7.0 mi South 6.9 mph - N/A   Clear
4:53 PM 34.0 °F 28.0 °F 26.1 °F 73% 30.25 in 7.0 mi South 6.9 mph - N/A   Clear
5:53 PM 33.1 °F 26.1 °F 27.0 °F 78% 30.26 in 8.0 mi South 8.1 mph - N/A   Clear
6:53 PM 33.8 °F 27.0 °F 26.6 °F 75% 30.23 in 8.0 mi SSW 8.1 mph - N/A   Clear
7:53 PM 33.1 °F 26.9 °F 27.0 °F 78% 30.25 in 8.0 mi South 6.9 mph - N/A   Clear
8:53 PM 33.1 °F 25.5 °F 27.0 °F 78% 30.25 in 8.0 mi South 9.2 mph - N/A   Clear
9:53 PM 33.1 °F 24.9 °F 27.0 °F 78% 30.22 in 7.0 mi South 10.4 mph - N/A   Clear
10:53 PM 33.1 °F 26.1 °F 27.0 °F 78% 30.21 in 8.0 mi South 8.1 mph - N/A   Clear
11:53 PM 33.1 °F 26.1 °F 27.0 °F 78% 30.20 in 8.0 mi South 8.1 mph - N/A   Clear